sat.trackr.live / text

‹ back to catalog

STARLINK-36891

NORAD 68024 · 2026-040K

PAYLOAD ACTIVE UNKNOWN

§ Identity

Operator
Country
US
Launch date
2026-03-01
Launch site
AFWTR
Launch vehicle
Mass (kg)
RCS (m²)

Purposes: comms

External: N2YO · Heavens-Above · Gunter

§ Orbital elements

Epoch: 2026-09-18T07:53:35.543904Z

Period
93.91 min
Inclination
97.2915°
Eccentricity
0.0001633
Mean motion
15.33456745 rev/d
Perigee alt
464.4 km
Apogee alt
466.6 km
Semi-major
6,843.6 km
B*
6.6158e-4
RAAN
208.6709°
Arg perigee
76.1249°
Mean anomaly
284.0176°
Rev number
3,098

§ Raw data

STARLINK-368911 68024U 26040K   26261.32888361  .00021352  00000+0  66158-3 0  99992 68024  97.2915 208.6709 0001633  76.1249 284.0176 15.33456745 30980

JSON: /api/v1/satellites/68024 · /tle

For live sub-satellite position, see the globe view (requires WebGL).

§ Visibility from observer

Set your observer location to see the next 7 days of passes ≥ 10°. The values pass through the URL so the page stays shareable.

No JS? Fill the form by hand. The geolocation button needs JavaScript.